Regional Weather Roundup
Issued by NWS Northern Indiana

Home | Current Version | Previous Version | Graphics & Text | Print | Product List | Glossary On
Versions: 1 2 3 4 5 6 7 8 9 10 11 12 13 14 15 16 17 18 19 20 21 22 23 24 25 26 27 28 29 30 31 32 33 34 35 36 37 38 39 40 41 42 43 44 45 46 47 48 49 50
000
ASUS43 KIWX 190410
RWRIWX

KIWX WEATHER ROUNDUP
NATIONAL WEATHER SERVICE NORTHERN INDIANA
1200 AM EDT TUE SEP 19 2017

NOTE: "FAIR" INDICATES FEW OR NO CLOUDS BELOW 12,000 FEET WITH NO
SIGNIFICANT WEATHER AND/OR OBSTRUCTIONS TO VISIBILITY.

* THESE STATIONS ARE NOT UNDER NWS QUALITY CONTROL. THEY ALSO MAY NOT
  REPORT WEATHER SUCH AS PRECIPITATION OR FOG.

INZ001>027-190500-
NORTHERN INDIANA

CITY           SKY/WX    TMP DP  RH WIND       PRES   REMARKS
GARY*          CLOUDY    68  63  83 NE6       29.99F
VALPARAISO     CLOUDY    66  61  84 NE3       29.99F
MICHIGAN CITY* CLOUDY    63  61  94 NE3       30.00F
LAPORTE*       CLOUDY    66  60  80 NE3       30.00F
KNOX*          CLOUDY    64  59  82 CALM      29.99S
SOUTH BEND     CLOUDY    67  58  72 E3        30.00F
GOSHEN         MOCLDY    67  58  72 E5        30.01F
MONTICELLO*    CLOUDY    70  67  89 E3        29.96F
LOGANSPORT*    CLOUDY    68  64  88 E5        29.99S
ROCHESTER*     CLOUDY    70  66  88 E5        29.99F
WARSAW*        CLOUDY    64  63  94 CALM      30.01S
AUBURN*        CLOUDY    64  63  94 E3        30.02F
FORT WAYNE     CLOUDY    65  62  90 CALM      30.01F
HUNTINGTON*    CLOUDY    68  67  96 CALM      30.00S
PERU/GRISSOM   CLOUDY    71  68  89 E6        29.98F

$$
INZ028>050-190500-
CENTRAL INDIANA

CITY           SKY/WX    TMP DP  RH WIND       PRES   REMARKS
LAFAYETTE      MOCLDY    69  68  96 E6        29.96F
KOKOMO*        CLOUDY    70  67  90 CALM      29.99F
MUNCIE*        CLOUDY    70  67  90 E5        30.00S
INDIANAPOLIS   CLOUDY    70  69  97 E5        29.98S

$$
MIZ043>046-050>051-056>058-064>065-071>073-077>080-190500-
SOUTHWEST LOWER MICHIGAN

CITY           SKY/WX    TMP DP  RH WIND       PRES   REMARKS
BATTLE CREEK   MOCLDY    66  58  75 E6        30.03F
BENTON HARBOR  CLOUDY    61  58  90 CALM      30.00F
COLDWATER*     CLOUDY    65  62  89 SE5       30.03F
HILLSDALE*     CLOUDY    66  63  88 E6        30.04F FOG
HOLLAND        PTCLDY    59  57  93 E5        30.02F
GRAND RAPIDS   PTCLDY    63  56  78 E8        30.03F
KALAMAZOO      CLOUDY    63  53  70 CALM      30.03F
STURGIS*       PTCLDY    65  56  73 E8        30.01F
THREE RIVERS*  FAIR      64  60  87 CALM      30.02F

$$
OHZ001>008-015>018-024>025-190500-
NORTHWEST OHIO

CITY           SKY/WX    TMP DP  RH WIND       PRES   REMARKS
WAUSEON*       CLOUDY    66  66 100 NE5       30.04S FOG
DEFIANCE       FOG       67  66  97 E7        30.02F VSB 1/2
FINDLAY        CLOUDY    70  67  90 E5        30.02S FOG
TOLEDO EXPRESS CLOUDY    66  32  28 NE6       30.03F
TOLEDO METCALF CLOUDY    68  66  93 NE6       30.04F
LIMA           MOCLDY    68  67  96 E7        30.02F FOG

$$
AND FOR LAKE MICHIGAN COASTAL AND OPEN LAKE BUOY OBSERVATIONS

STATION/POSITION TEMP    WIND        PRES    VSBY  WAVE
                 AIR SEA DIR/SP/G                  HT/PER
                 (F)     (DEG/KT/KT) (MB)    (MI)  (FT/S)
CALUMET HARBOR    67      40/  7/ 10 1015.1F
MICHIGAN CITY     65      60/  7/  8   N/A
BURNS HARBOR      67      60/ 10/ 12 1015.9F
SAINT JOSEPH      63      30/  1/  2 1016.9
SOUTH LAKE BUOY   67 68   50/  6/  8 1016.2F         2/ 4
4 MI NW BRIDGMAN  67 69  100/  6/  6 1015.6          2/ 4
MICHIGAN CITY     67 68   80/  8/ 12   N/A           2/ 4

$$
&&




USA.gov is the U.S. government's official web portal to all federal, state and local government web resources and services.